OV1-21 R/B, 5397

Orbit data source: Space-Track

OV1-21 R/B, 5397 is space debris in LEO originally from a launch on Sat, 07 Aug 1971 UTC via an ATLAS F launch vehicle from the Air Force Western Test Range (AFWTR). Debris objects in space refer to the collection of defunct objects orbiting the Earth. Examples of debris include non-operational satellites, rocket bodies, and fragments generated from explosions, collisions, or faulty payload assembly.

Loading next visibility...
Identifier
5397, 1971-067B
Orbit
LEO
Country
Flag of USUS
Related business
Manufacturer
GD/Convair
Mission
Spacecraft
Bus & Motor
OV1P, FW4S
Mass
~359 kg wet, ~359 kg dry
Launch date (UTC)
1971-08-07 (54 years ago)
Launch vehicle
ATLAS F
Launch site
Air Force Western Test Range (AFWTR)
Object type
Payload
Rocket body
Debris
Shape & HBR
Unknown
Radar Cross Section
Large (>1 m²)

Expand to show TLE details & history
Last TLE update: 16 hours ago

TLE from 16 hours ago
0 OV1-21 R/B
1 05397U 71067B   25348.93120122  .00000164  00000-0  68530-4 0  9994
2 05397  87.6298 122.7646 0083308  55.3542 305.5463 14.18182192808335
Epoch: 2025-12-14T22:20Z
TLE epoch observation values (Epoch: 2025-12-14T22:20:55.785Z)
Latitude
-0.00007°
Longitude
63.69512°
Altitude
799.958 km
Speed
7.471 km/s
True Right ascension
08h 11m 03s
True Declination
0° 00' 00"
Sunlit
Object was in full shadow at epoch
Visualization orbit readout
Latitude
Unknown
Longitude
Unknown
Altitude
Unknown
Speed
Unknown
Apparent Right ascension
Unknown
Apparent Declination
Unknown
Sunlit
N/A
Visualization observer readout
Local Sidereal Time
13:18:57
Azimuth
Unknown
Elevation
Unknown
Doppler factor
Unknown
Orbital elements
Apogee altitude
888.51 km
Perigee altitude
768.437 km
Semi-major axis
7,206.61 km
Eccentricity
0.00833
Inclination
87.6298°
RAAN
122.7646°
Arg. of periapsis
55.3542°
True anomaly
304.76486°
Mean anomaly
305.5463°
Eccentric anomaly
305.15605°
Mean motion
3.5477 °/min
Orbital period
101.47 mins
BSTAR
0.00006853
Loading maneuver chart data...
Computing Atmospheric mass density...

Documentation

Showing up to 5 results
|